THORAD AGENA D DEB, 4677

Orbit data source: Space-Track

THORAD AGENA D DEB, 4677 is space debris in SSO originally from a launch on Wed, 08 Apr 1970 UTC launched from the Air Force Western Test Range (AFWTR). Debris objects in space refer to the collection of defunct objects orbiting the Earth. Examples of debris include non-operational satellites, rocket bodies, and fragments generated from explosions, collisions, or faulty payload assembly.

Loading next visibility...
Identifier
4677, 1970-025BA
Orbit
SSO
Country
Flag of USUS
Related business
Manufacturer
Unknown
Mission
Spacecraft
Bus & Motor
Unknown
Mass
Unknown
Launch date (UTC)
1970-04-08 (56 years ago)
Launch vehicle
Unknown
Launch site
Air Force Western Test Range (AFWTR)
Object type
Payload
Rocket body
Debris
Shape & HBR
Unknown shape, 0.1 m
Radar Cross Section
Medium (>0.1 m² and <1 m²)

Expand to show TLE details & history
Last TLE update: 11 hours ago

TLE from 11 hours ago
0 THORAD AGENA D DEB
1 04677U 70025BA  26255.88734326  .00000082  00000-0  17658-3 0  9999
2 04677  99.9982  17.7339 0008513 294.5102 186.8810 13.58505337790460
Epoch: 2026-09-12T21:17Z
TLE epoch observation values (Epoch: 2026-09-12T21:17:46.457Z)
Latitude
57.31883°
Longitude
-97.73342°
Altitude
1,056.926 km
Speed
7.326 km/s
True Right ascension
14h 14m 24s
True Declination
57° 10' 07"
Sunlit
Object was in daylight at epoch
Visualization orbit readout
Latitude
Unknown
Longitude
Unknown
Altitude
Unknown
Speed
Unknown
Apparent Right ascension
Unknown
Apparent Declination
Unknown
Sunlit
N/A
Visualization observer readout
Local Sidereal Time
00:45:20
Azimuth
Unknown
Elevation
Unknown
Doppler factor
Unknown
Orbital elements
Apogee altitude
1,044.748 km
Perigee altitude
1,032.121 km
Semi-major axis
7,416.572 km
Eccentricity
0.00085
Inclination
99.9982°
RAAN
17.7339°
Arg. of periapsis
294.5102°
True anomaly
186.86932°
Mean anomaly
186.881°
Eccentric anomaly
186.87516°
Mean motion
3.39812 °/min
Orbital period
105.94 mins
BSTAR
0.00017658
Loading maneuver chart data...
Computing Atmospheric mass density...

Documentation

Showing up to 5 results
|